Station Historical Data
Daily Summary for May 14, 2017 Units:  Metric    English   Both
« Previous Day
Next Day »
Daily Weekly Monthly Yearly Custom
  High: Low: Average:
Temperature: 18.1 °C 9.2 °C 11.9 °C
Dew Point: 11.3 °C 2.7 °C 7.1 °C
Humidity: 89% 39% 73%
Wind Speed: 29km/h 0km/h 6.8km/h
Wind Gust: 40.2km/h - -
Wind- - West
Pressure: 1012.4 hPa 1005 hPa -
Precipitation: 0 mm    
Historical Graphs
 
 
Tabular Data for May 14, 2017
Time Temperature Dew Point Pressure Wind Wind Speed Wind Gust Humidity Rainfall Rate (Hourly)
00:04 10.1 °C 6.4 °C 1008 hPa SSW 1.6 km/h 1.6 km/h 78% 0 mm
00:09 9.9 °C 6.3 °C 1008 hPa Calm   4.8 km/h 78% 0 mm
00:14 9.9 °C 6.4 °C 1008 hPa Calm   6.4 km/h 79% 0 mm
00:19 9.8 °C 6.3 °C 1008 hPa SW 1.6 km/h 6.4 km/h 79% 0 mm
00:24 9.7 °C 6.3 °C 1008 hPa SW 1.6 km/h 8 km/h 79% 0 mm
00:29 9.8 °C 6.5 °C 1008 hPa SW 1.6 km/h 9.7 km/h 80% 0 mm
00:34 9.8 °C 6.5 °C 1008 hPa Calm   8 km/h 80% 0 mm
00:39 9.8 °C 6.5 °C 1008 hPa SW 1.6 km/h 4.8 km/h 80% 0 mm
00:44 9.8 °C 6.6 °C 1007.7 hPa South 1.6 km/h 6.4 km/h 80% 0 mm
00:49 9.8 °C 6.6 °C 1008 hPa SSW 1.6 km/h 6.4 km/h 80% 0 mm
00:54 9.8 °C 6.6 °C 1008 hPa SSW 1.6 km/h 6.4 km/h 80% 0 mm
00:59 9.8 °C 6.6 °C 1008 hPa SSW 1.6 km/h 4.8 km/h 80% 0 mm
01:04 9.8 °C 6.5 °C 1008 hPa SW 1.6 km/h 8 km/h 80% 0 mm
01:09 9.8 °C 6.5 °C 1008 hPa Calm   4.8 km/h 80% 0 mm
01:14 9.8 °C 6.7 °C 1007.7 hPa SSW 1.6 km/h 6.4 km/h 81% 0 mm
01:19 9.8 °C 6.7 °C 1007.7 hPa SSW 1.6 km/h 6.4 km/h 81% 0 mm
01:24 9.7 °C 6.6 °C 1007.7 hPa Calm   4.8 km/h 81% 0 mm
01:29 9.7 °C 6.6 °C 1007.7 hPa SW 3.2 km/h 3.2 km/h 81% 0 mm
01:34 9.6 °C 6.4 °C 1007.7 hPa Calm   3.2 km/h 81% 0 mm
01:39 9.6 °C 6.4 °C 1007.7 hPa Calm     81% 0 mm
01:44 9.5 °C 6.4 °C 1007.7 hPa SW 1.6 km/h 3.2 km/h 81% 0 mm
01:49 9.4 °C 6.3 °C 1007.3 hPa SW 1.6 km/h 3.2 km/h 81% 0 mm
01:54 9.4 °C 6.3 °C 1007.3 hPa Calm   3.2 km/h 81% 0 mm
01:59 9.3 °C 6.4 °C 1007.3 hPa Calm   3.2 km/h 82% 0 mm
02:04 9.4 °C 6.4 °C 1007.3 hPa SW 1.6 km/h 3.2 km/h 82% 0 mm
02:09 9.4 °C 6.7 °C 1007.3 hPa Calm   1.6 km/h 83% 0 mm
02:14 9.4 °C 6.7 °C 1007 hPa Calm   3.2 km/h 83% 0 mm
02:19 9.4 °C 6.7 °C 1007.3 hPa Calm   3.2 km/h 83% 0 mm
02:24 9.4 °C 6.7 °C 1007.3 hPa SW 1.6 km/h 4.8 km/h 83% 0 mm
02:29 9.5 °C 6.9 °C 1007.3 hPa SW 1.6 km/h 6.4 km/h 84% 0 mm
02:34 9.6 °C 7 °C 1007.3 hPa SW 4.8 km/h 8 km/h 84% 0 mm
02:39 9.6 °C 7.1 °C 1007.3 hPa WSW 3.2 km/h 8 km/h 84% 0 mm
02:44 9.7 °C 6.9 °C 1007.3 hPa SW 4.8 km/h 9.7 km/h 83% 0 mm
02:49 9.8 °C 7 °C 1007 hPa Calm   11.3 km/h 83% 0 mm
02:54 9.8 °C 7.1 °C 1007.3 hPa WSW 3.2 km/h 8 km/h 83% 0 mm
02:59 9.9 °C 7 °C 1007.3 hPa SW 9.7 km/h 9.7 km/h 82% 0 mm
03:04 9.9 °C 7 °C 1007 hPa WSW 8 km/h 12.9 km/h 82% 0 mm
03:09 10.1 °C 7.1 °C 1007 hPa WSW 4.8 km/h 12.9 km/h 82% 0 mm
03:14 10.1 °C 7.1 °C 1007 hPa SW 4.8 km/h 11.3 km/h 82% 0 mm
03:19 10 °C 7.1 °C 1007 hPa WSW 3.2 km/h 6.4 km/h 82% 0 mm
03:24 9.9 °C 7 °C 1007 hPa WSW 3.2 km/h 6.4 km/h 82% 0 mm
03:29 9.9 °C 6.9 °C 1007 hPa WSW 3.2 km/h 6.4 km/h 82% 0 mm
03:34 9.8 °C 6.7 °C 1007 hPa WSW 3.2 km/h 6.4 km/h 81% 0 mm
03:39 9.7 °C 6.8 °C 1007 hPa WSW 4.8 km/h 9.7 km/h 82% 0 mm
03:44 9.7 °C 6.8 °C 1007 hPa WSW 1.6 km/h 11.3 km/h 82% 0 mm
03:49 9.7 °C 6.7 °C 1007 hPa SW 4.8 km/h 6.4 km/h 82% 0 mm
03:54 9.6 °C 6.9 °C 1007 hPa SW 1.6 km/h 11.3 km/h 83% 0 mm
03:59 9.6 °C 6.8 °C 1007 hPa WSW 4.8 km/h 9.7 km/h 83% 0 mm
04:04 9.5 °C 6.8 °C 1007 hPa SW 1.6 km/h 8 km/h 83% 0 mm
04:09 9.5 °C 6.9 °C 1006.7 hPa SW 1.6 km/h 6.4 km/h 84% 0 mm
04:14 9.4 °C 6.9 °C 1006.7 hPa SW 3.2 km/h 6.4 km/h 84% 0 mm
04:19 9.5 °C 6.9 °C 1007 hPa SW 3.2 km/h 9.7 km/h 84% 0 mm
04:24 9.4 °C 6.9 °C 1007 hPa SW 4.8 km/h 9.7 km/h 84% 0 mm
04:29 9.4 °C 6.9 °C 1006.7 hPa SW 3.2 km/h 9.7 km/h 84% 0 mm
04:34 9.5 °C 7.1 °C 1006.7 hPa SW 3.2 km/h 8 km/h 85% 0 mm
04:39 9.4 °C 7.1 °C 1006.7 hPa SW 1.6 km/h 4.8 km/h 85% 0 mm
04:44 9.4 °C 7.1 °C 1006.7 hPa SW 3.2 km/h 9.7 km/h 85% 0 mm
04:49 9.4 °C 7 °C 1006.7 hPa SW 6.4 km/h 9.7 km/h 85% 0 mm
04:54 9.4 °C 7 °C 1006.7 hPa SSW 3.2 km/h 8 km/h 85% 0 mm
04:59 9.4 °C 7 °C 1006.7 hPa SW 1.6 km/h 9.7 km/h 85% 0 mm
05:04 9.3 °C 6.9 °C 1006.7 hPa Calm   4.8 km/h 85% 0 mm
05:09 9.3 °C 6.9 °C 1006.7 hPa SW 3.2 km/h 9.7 km/h 85% 0 mm
05:14 9.3 °C 7.1 °C 1006.7 hPa SW 3.2 km/h 9.7 km/h 86% 0 mm
05:19 9.3 °C 7.1 °C 1006.7 hPa SW 3.2 km/h 8 km/h 86% 0 mm
05:24 9.3 °C 7.1 °C 1006.7 hPa SW 6.4 km/h 8 km/h 86% 0 mm
05:29 9.3 °C 7.1 °C 1007 hPa SW 6.4 km/h 8 km/h 86% 0 mm
05:34 9.4 °C 7.3 °C 1007 hPa SW 1.6 km/h 8 km/h 87% 0 mm
05:39 9.4 °C 7.3 °C 1007 hPa SW 4.8 km/h 9.7 km/h 87% 0 mm
05:44 9.4 °C 7.3 °C 1007 hPa SW 4.8 km/h 9.7 km/h 87% 0 mm
05:49 9.4 °C 7.3 °C 1007 hPa SW 3.2 km/h 9.7 km/h 87% 0 mm
05:54 9.3 °C 7.3 °C 1007 hPa SW 3.2 km/h 6.4 km/h 87% 0 mm
05:59 9.3 °C 7.3 °C 1006.7 hPa SW 3.2 km/h 6.4 km/h 87% 0 mm
06:04 9.3 °C 7.3 °C 1006.7 hPa Calm   4.8 km/h 87% 0 mm
06:09 9.2 °C 7.2 °C 1007 hPa Calm     87% 0 mm
06:14 9.2 °C 7.2 °C 1006.7 hPa Calm   6.4 km/h 87% 0 mm
06:19 9.2 °C 7.2 °C 1007 hPa WSW 1.6 km/h 8 km/h 87% 0 mm
06:24 9.3 °C 7.4 °C 1007 hPa WSW 4.8 km/h 8 km/h 88% 0 mm
06:29 9.3 °C 7.4 °C 1007 hPa SW 3.2 km/h 9.7 km/h 88% 0 mm
06:34 9.4 °C 7.5 °C 1007 hPa SW 3.2 km/h 8 km/h 88% 0 mm
06:39 9.5 °C 7.6 °C 1007 hPa WSW 3.2 km/h 8 km/h 88% 0 mm
06:44 9.5 °C 7.6 °C 1007.3 hPa WSW 3.2 km/h 8 km/h 88% 0 mm
06:49 9.6 °C 7.7 °C 1007 hPa WSW 3.2 km/h 8 km/h 88% 0 mm
06:54 9.6 °C 7.7 °C 1007 hPa WSW 3.2 km/h 6.4 km/h 88% 0 mm
06:59 9.7 °C 7.8 °C 1007 hPa SW 3.2 km/h 6.4 km/h 88% 0 mm
07:04 9.7 °C 7.9 °C 1007.3 hPa WSW 1.6 km/h 6.4 km/h 89% 0 mm
07:09 9.8 °C 8.1 °C 1007.3 hPa WSW 4.8 km/h 6.4 km/h 89% 0 mm
07:14 9.8 °C 8.1 °C 1007.3 hPa WSW 3.2 km/h 8 km/h 89% 0 mm
07:19 9.8 °C 8.1 °C 1007.3 hPa WSW 3.2 km/h 4.8 km/h 89% 0 mm
07:24 9.9 °C 8.2 °C 1007.3 hPa Calm   4.8 km/h 89% 0 mm
07:29 9.9 °C 8.2 °C 1007.3 hPa Calm   4.8 km/h 89% 0 mm
07:34 10 °C 8.3 °C 1007.3 hPa Calm   4.8 km/h 89% 0 mm
07:39 10.1 °C 8.4 °C 1007.3 hPa Calm   3.2 km/h 89% 0 mm
07:44 10.2 °C 8.5 °C 1007.3 hPa WSW 1.6 km/h 4.8 km/h 89% 0 mm
07:49 10.2 °C 8.5 °C 1007.3 hPa WSW 1.6 km/h 4.8 km/h 89% 0 mm
07:54 10.3 °C 8.6 °C 1007.3 hPa Calm   4.8 km/h 89% 0 mm
07:59 10.4 °C 8.7 °C 1007.3 hPa Calm   6.4 km/h 89% 0 mm
08:04 10.6 °C 8.7 °C 1007.3 hPa WSW 3.2 km/h 8 km/h 88% 0 mm
08:09 10.8 °C 8.8 °C 1007.3 hPa WSW 3.2 km/h 8 km/h 87% 0 mm
08:14 10.9 °C 8.9 °C 1007.3 hPa WSW 4.8 km/h 11.3 km/h 87% 0 mm
08:19 10.9 °C 8.7 °C 1007.3 hPa WSW 6.4 km/h 9.7 km/h 86% 0 mm
08:24 11.1 °C 8.8 °C 1007.3 hPa WSW 6.4 km/h 8 km/h 86% 0 mm
08:29 11.1 °C 8.8 °C 1007.3 hPa WSW 3.2 km/h 8 km/h 86% 0 mm
08:34 11.3 °C 9 °C 1007.3 hPa SW 3.2 km/h 6.4 km/h 86% 0 mm
08:39 11.4 °C 8.9 °C 1007.3 hPa SW 3.2 km/h 8 km/h 85% 0 mm
08:44 11.5 °C 9.1 °C 1007.3 hPa SW 3.2 km/h 8 km/h 85% 0 mm
08:49 11.6 °C 9.2 °C 1007.3 hPa WSW 3.2 km/h 6.4 km/h 85% 0 mm
08:54 11.9 °C 9.3 °C 1007.3 hPa SSW 4.8 km/h 9.7 km/h 84% 0 mm
08:59 12.1 °C 9.4 °C 1007.3 hPa SW 4.8 km/h 8 km/h 84% 0 mm
09:04 11.9 °C 8.9 °C 1007.3 hPa SW 4.8 km/h 8 km/h 82% 0 mm
09:09 11.9 °C 8.9 °C 1007.3 hPa SW 4.8 km/h 8 km/h 82% 0 mm
09:14 12.3 °C 9.2 °C 1007 hPa SW 4.8 km/h 11.3 km/h 81% 0 mm
09:19 12.3 °C 9.1 °C 1007 hPa SSW 6.4 km/h 8 km/h 81% 0 mm
09:24 12.3 °C 9.5 °C 1007 hPa Calm   9.7 km/h 83% 0 mm
09:29 13.1 °C 9.9 °C 1007.3 hPa WSW 4.8 km/h 11.3 km/h 81% 0 mm
09:34 13 °C 9.8 °C 1007.3 hPa SW 6.4 km/h 16.1 km/h 81% 0 mm
09:39 13.2 °C 9.8 °C 1007.3 hPa SW 4.8 km/h 11.3 km/h 80% 0 mm
09:44 13.3 °C 9.8 °C 1007.3 hPa WSW 6.4 km/h 12.9 km/h 79% 0 mm
09:49 13.7 °C 9.8 °C 1007 hPa WSW 6.4 km/h 9.7 km/h 77% 0 mm
09:54 13.9 °C 9.8 °C 1007 hPa WSW 6.4 km/h 12.9 km/h 76% 0 mm
09:59 13.8 °C 9.6 °C 1007 hPa WSW 6.4 km/h 12.9 km/h 76% 0 mm
10:04 13.9 °C 9.7 °C 1007 hPa SW 6.4 km/h 11.3 km/h 76% 0 mm
10:09 14.1 °C 10.1 °C 1007 hPa SW 6.4 km/h 11.3 km/h 77% 0 mm
10:14 14.6 °C 9.6 °C 1007 hPa SW 6.4 km/h 12.9 km/h 72% 0 mm
10:19 14.9 °C 10.5 °C 1007 hPa SSW 6.4 km/h 11.3 km/h 75% 0 mm
10:24 15.2 °C 10.2 °C 1007 hPa WSW 8 km/h 11.3 km/h 72% 0 mm
10:29 15.3 °C 9.8 °C 1007 hPa WSW 6.4 km/h 12.9 km/h 70% 0 mm
10:34 15.7 °C 9.6 °C 1007 hPa West 6.4 km/h 12.9 km/h 67% 0 mm
10:39 15.9 °C 9.8 °C 1007 hPa West 6.4 km/h 12.9 km/h 67% 0 mm
10:44 15.6 °C 9.5 °C 1007 hPa WSW 6.4 km/h 9.7 km/h 67% 0 mm
10:49 15.5 °C 9.4 °C 1007 hPa SW 8 km/h 11.3 km/h 67% 0 mm
10:54 15.7 °C 10.1 °C 1007 hPa WSW 9.7 km/h 14.5 km/h 69% 0 mm
10:59 15.8 °C 9.9 °C 1006.7 hPa WSW 3.2 km/h 14.5 km/h 68% 0 mm
11:04 16.1 °C 10.4 °C 1007 hPa SW 8 km/h 14.5 km/h 69% 0 mm
11:09 16.4 °C 10.3 °C 1007 hPa WSW 6.4 km/h 14.5 km/h 67% 0 mm
11:14 16 °C 8.9 °C 1007 hPa SW 8 km/h 16.1 km/h 63% 0 mm
11:19 16.2 °C 10.3 °C 1006.7 hPa SW 3.2 km/h 12.9 km/h 68% 0 mm
11:24 16.7 °C 10.7 °C 1006.7 hPa West 6.4 km/h 12.9 km/h 68% 0 mm
11:29 17 °C 11.3 °C 1006.7 hPa SW 8 km/h 12.9 km/h 69% 0 mm
11:34 16.9 °C 10.3 °C 1006.7 hPa SW 8 km/h 16.1 km/h 65% 0 mm
11:39 16.7 °C 10.5 °C 1006.7 hPa SSW 8 km/h 16.1 km/h 67% 0 mm
11:44 16.6 °C 10 °C 1006.7 hPa SW 9.7 km/h 19.3 km/h 65% 0 mm
11:49 16.9 °C 11.2 °C 1006.7 hPa West 17.7 km/h 20.9 km/h 69% 0 mm
11:54 16.2 °C 9.6 °C 1006.3 hPa SW 9.7 km/h 22.5 km/h 65% 0 mm
11:59 15.3 °C 9.2 °C 1006.3 hPa SW 9.7 km/h 22.5 km/h 67% 0 mm
12:04 14.4 °C 9.2 °C 1006.7 hPa SW 16.1 km/h 19.3 km/h 71% 0 mm
12:09 13.8 °C 9.2 °C 1006.7 hPa WSW 6.4 km/h 17.7 km/h 74% 0 mm
12:14 13.2 °C 9.4 °C 1006.7 hPa West 12.9 km/h 17.7 km/h 78% 0.25 mm
12:19 12.9 °C 9.9 °C 1006.3 hPa SW 11.3 km/h 14.5 km/h 82% 0.51 mm
12:24 13.1 °C 10.1 °C 1006.3 hPa SW 8 km/h 14.5 km/h 82% 0.51 mm
12:29 12.8 °C 9.6 °C 1006.3 hPa SW 6.4 km/h 16.1 km/h 81% 0.51 mm
12:34 12.7 °C 9.5 °C 1006.3 hPa SSW 3.2 km/h 12.9 km/h 81% 0.76 mm
12:39 12.4 °C 9.2 °C 1006.3 hPa SW 3.2 km/h 14.5 km/h 81% 1.02 mm
12:44 12.3 °C 9.3 °C 1006.3 hPa SW 8 km/h 17.7 km/h 82% 1.27 mm
12:49 12.3 °C 9.3 °C 1006 hPa Calm   12.9 km/h 82% 1.27 mm
12:54 12.4 °C 9.2 °C 1006.3 hPa SW 4.8 km/h 12.9 km/h 81% 1.52 mm
12:59 12.4 °C 9.4 °C 1006.3 hPa WSW 6.4 km/h 17.7 km/h 82% 2.03 mm
13:04 12.1 °C 9.1 °C 1006.7 hPa WSW 8 km/h 17.7 km/h 82% 3.3 mm
13:09 11.6 °C 9 °C 1006 hPa WSW 6.4 km/h 14.5 km/h 84% 5.33 mm
13:14 11.6 °C 8.9 °C 1006 hPa SW 8 km/h 16.1 km/h 84% 5.33 mm
13:19 12 °C 9.6 °C 1006 hPa WNW 4.8 km/h 19.3 km/h 85% 5.08 mm
13:24 13 °C 10.3 °C 1006 hPa West 6.4 km/h 19.3 km/h 84% 5.08 mm
13:29 13 °C 10.6 °C 1005.6 hPa West 3.2 km/h 16.1 km/h 85% 5.08 mm
13:34 13.7 °C 11.2 °C 1005.6 hPa West 12.9 km/h 20.9 km/h 85% 4.83 mm
13:39 14.3 °C 10.9 °C 1005.3 hPa WSW 9.7 km/h 29 km/h 80% 4.57 mm
13:44 14.3 °C 10.5 °C 1005.3 hPa SSW 8 km/h 24.1 km/h 78% 4.32 mm
13:49 14.6 °C 10.8 °C 1005.3 hPa SSW 8 km/h 19.3 km/h 78% 4.32 mm
13:54 15.4 °C 11.2 °C 1005.3 hPa WSW 11.3 km/h 20.9 km/h 76% 4.06 mm
13:59 14.4 °C 9.7 °C 1005.3 hPa WSW 9.7 km/h 25.7 km/h 73% 3.56 mm
14:04 13.9 °C 9.4 °C 1005.3 hPa WSW 9.7 km/h 25.7 km/h 74% 1.52 mm
14:09 15.3 °C 10.9 °C 1005 hPa WSW 9.7 km/h 22.5 km/h 75% 0.25 mm
14:14 16.3 °C 11.2 °C 1005 hPa WSW 9.7 km/h 20.9 km/h 72% 0 mm
14:19 16.4 °C 10.3 °C 1005 hPa WSW 11.3 km/h 22.5 km/h 67% 0 mm
14:24 16.1 °C 9.7 °C 1005 hPa West 11.3 km/h 22.5 km/h 66% 0 mm
14:29 17 °C 8.2 °C 1005 hPa WSW 19.3 km/h 22.5 km/h 56% 0 mm
14:34 17.7 °C 5.3 °C 1005 hPa West 29 km/h 40.2 km/h 44% 0 mm
14:39 17.3 °C 4.9 °C 1005 hPa WSW 16.1 km/h 35.4 km/h 44% 0 mm
14:44 17.2 °C 5.1 °C 1005 hPa NW 25.7 km/h 33.8 km/h 45% 0 mm
14:49 16.7 °C 4.4 °C 1005.3 hPa NW 9.7 km/h 38.6 km/h 44% 0 mm
14:54 16.7 °C 3.3 °C 1005.3 hPa WNW 16.1 km/h 38.6 km/h 41% 0 mm
14:59 16.4 °C 2.7 °C 1005.3 hPa WNW 14.5 km/h 29 km/h 40% 0 mm
15:04 16.4 °C 3.5 °C 1005 hPa WNW 14.5 km/h 30.6 km/h 42% 0 mm
15:09 17.7 °C 3.6 °C 1005.3 hPa WNW 14.5 km/h 30.6 km/h 39% 0 mm
15:14 17.9 °C 3.8 °C 1005 hPa WNW 16.1 km/h 30.6 km/h 39% 0 mm
15:19 17.9 °C 4.1 °C 1005 hPa West 11.3 km/h 30.6 km/h 40% 0 mm
15:24 18.1 °C 4.6 °C 1005.3 hPa WNW 14.5 km/h 30.6 km/h 41% 0 mm
15:29 18 °C 5.2 °C 1005.3 hPa WNW 14.5 km/h 30.6 km/h 43% 0 mm
15:34 17.3 °C 3.6 °C 1005.3 hPa WNW 11.3 km/h 29 km/h 40% 0 mm
15:39 16.4 °C 4.8 °C 1005.6 hPa North 11.3 km/h 29 km/h 46% 0 mm
15:44 15.8 °C 5.1 °C 1005.6 hPa NNW 8 km/h 20.9 km/h 49% 0 mm
15:49 15.4 °C 4.8 °C 1005.6 hPa NNW 8 km/h 29 km/h 49% 0 mm
15:54 15.4 °C 5.3 °C 1005.6 hPa NW 12.9 km/h 35.4 km/h 51% 0 mm
15:59 15.1 °C 5.6 °C 1005.6 hPa NW 12.9 km/h 35.4 km/h 53% 0 mm
16:04 14.9 °C 5.9 °C 1006.3 hPa NNW 14.5 km/h 32.2 km/h 55% 0 mm
16:09 14.7 °C 6.2 °C 1006.3 hPa NNW 20.9 km/h 32.2 km/h 57% 0 mm
16:14 14.3 °C 6.2 °C 1006.3 hPa NW 12.9 km/h 33.8 km/h 58% 0 mm
16:19 14 °C 5.3 °C 1006.3 hPa NNW 8 km/h 30.6 km/h 56% 0 mm
16:24 13.8 °C 5.4 °C 1006.7 hPa NW 12.9 km/h 30.6 km/h 57% 0 mm
16:29 13.7 °C 5.3 °C 1006.7 hPa NNW 11.3 km/h 27.4 km/h 57% 0 mm
16:34 13.4 °C 5.6 °C 1007 hPa NNW 11.3 km/h 20.9 km/h 59% 0 mm
16:39 13.2 °C 5.6 °C 1007 hPa NW 14.5 km/h 22.5 km/h 60% 0 mm
16:44 13 °C 5.9 °C 1007 hPa West 12.9 km/h 22.5 km/h 62% 0 mm
16:49 12.8 °C 6.2 °C 1007.3 hPa NW 9.7 km/h 22.5 km/h 64% 0 mm
16:54 12.6 °C 6 °C 1007.3 hPa NW 9.7 km/h 20.9 km/h 64% 0 mm
16:59 12.4 °C 6.1 °C 1007.3 hPa NW 9.7 km/h 22.5 km/h 65% 0 mm
17:04 12.4 °C 6 °C 1007.7 hPa NW 12.9 km/h 24.1 km/h 65% 0 mm
17:09 12.3 °C 6.3 °C 1007.7 hPa NW 11.3 km/h 19.3 km/h 67% 0 mm
17:14 12.2 °C 6.2 °C 1007.7 hPa NW 22.5 km/h 22.5 km/h 67% 0 mm
17:19 12.1 °C 6.2 °C 1007.7 hPa NNW 8 km/h 24.1 km/h 67% 0 mm
17:24 12.1 °C 6.2 °C 1008 hPa NW 11.3 km/h 24.1 km/h 67% 0 mm
17:29 12.1 °C 5.9 °C 1008 hPa NW 9.7 km/h 20.9 km/h 66% 0 mm
17:34 12.2 °C 6.2 °C 1008 hPa NW 8 km/h 20.9 km/h 67% 0 mm
17:39 12.4 °C 6.2 °C 1008 hPa NW 11.3 km/h 27.4 km/h 66% 0 mm
17:44 12.6 °C 6.4 °C 1008 hPa NW 11.3 km/h 27.4 km/h 66% 0 mm
17:49 12.8 °C 6.4 °C 1008.4 hPa NW 6.4 km/h 24.1 km/h 65% 0 mm
17:54 12.9 °C 6.2 °C 1008.4 hPa WNW 16.1 km/h 24.1 km/h 64% 0 mm
17:59 13.1 °C 6.4 °C 1008.4 hPa North 4.8 km/h 17.7 km/h 64% 0 mm
18:04 13.3 °C 6.2 °C 1008.4 hPa West 9.7 km/h 24.1 km/h 62% 0 mm
18:09 13.7 °C 6.5 °C 1008.4 hPa NW 6.4 km/h 14.5 km/h 62% 0 mm
18:14 13.8 °C 6.4 °C 1008.4 hPa NW 4.8 km/h 20.9 km/h 61% 0 mm
18:19 13.9 °C 6.5 °C 1008.4 hPa NW 8 km/h 20.9 km/h 61% 0 mm
18:24 14.1 °C 6.4 °C 1008.4 hPa NW 8 km/h 19.3 km/h 60% 0 mm
18:29 14 °C 6.1 °C 1008.4 hPa NW 9.7 km/h 22.5 km/h 59% 0 mm
18:34 13.8 °C 5.4 °C 1008.7 hPa NNW 11.3 km/h 22.5 km/h 57% 0 mm
18:39 13.6 °C 5.5 °C 1008.7 hPa NNW 17.7 km/h 24.1 km/h 58% 0 mm
18:44 13.4 °C 5.3 °C 1008.7 hPa NW 19.3 km/h 24.1 km/h 58% 0 mm
18:49 13.3 °C 5.5 °C 1009 hPa NW 9.7 km/h 24.1 km/h 59% 0 mm
18:54 13.2 °C 4.9 °C 1009 hPa NNW 14.5 km/h 24.1 km/h 57% 0 mm
18:59 13.2 °C 5.1 °C 1009 hPa NNW 19.3 km/h 20.9 km/h 58% 0 mm
19:04 13.2 °C 4.8 °C 1009.4 hPa NW 11.3 km/h 25.7 km/h 57% 0 mm
19:09 13.1 °C 4.7 °C 1009.4 hPa NNE 19.3 km/h 27.4 km/h 57% 0 mm
19:14 13 °C 4.9 °C 1009.4 hPa NW 19.3 km/h 27.4 km/h 58% 0 mm
19:19 12.9 °C 4.9 °C 1009.4 hPa NW 11.3 km/h 27.4 km/h 58% 0 mm
19:24 12.9 °C 5.1 °C 1009.4 hPa NW 9.7 km/h 22.5 km/h 59% 0 mm
19:29 12.7 °C 4.9 °C 1009.4 hPa NW 9.7 km/h 25.7 km/h 59% 0 mm
19:34 12.6 °C 5.1 °C 1009.4 hPa NW 8 km/h 25.7 km/h 60% 0 mm
19:39 12.6 °C 4.8 °C 1009.7 hPa NW 6.4 km/h 20.9 km/h 59% 0 mm
19:44 12.4 °C 4.8 °C 1009.7 hPa NNW 11.3 km/h 22.5 km/h 60% 0 mm
19:49 12.3 °C 4.7 °C 1009.7 hPa NW 11.3 km/h 22.5 km/h 60% 0 mm
19:54 12.2 °C 4.9 °C 1009.7 hPa NW 8 km/h 22.5 km/h 61% 0 mm
19:59 12.2 °C 4.9 °C 1009.7 hPa NNW 14.5 km/h 24.1 km/h 61% 0 mm
20:04 12.1 °C 4.8 °C 1010 hPa WNW 6.4 km/h 29 km/h 61% 0 mm
20:09 12 °C 4.7 °C 1010 hPa NW 3.2 km/h 27.4 km/h 61% 0 mm
20:14 11.9 °C 4.8 °C 1010 hPa NNE 12.9 km/h 24.1 km/h 62% 0 mm
20:19 11.8 °C 4.7 °C 1010 hPa NW 9.7 km/h 24.1 km/h 62% 0 mm
20:24 11.7 °C 4.8 °C 1010 hPa NW 9.7 km/h 24.1 km/h 63% 0 mm
20:29 11.5 °C 4.7 °C 1010.4 hPa WNW 8 km/h 24.1 km/h 63% 0 mm
20:34 11.3 °C 4.8 °C 1010 hPa WNW 12.9 km/h 24.1 km/h 64% 0 mm
20:39 11.2 °C 4.9 °C 1010.4 hPa WNW 4.8 km/h 20.9 km/h 65% 0 mm
20:44 11.1 °C 4.9 °C 1010.4 hPa NNW 14.5 km/h 20.9 km/h 66% 0 mm
20:49 10.9 °C 4.8 °C 1010.4 hPa NW 8 km/h 20.9 km/h 66% 0 mm
20:54 10.8 °C 4.9 °C 1010.7 hPa NW 8 km/h 19.3 km/h 67% 0 mm
20:59 10.8 °C 4.9 °C 1010.4 hPa West 3.2 km/h 17.7 km/h 67% 0 mm
21:04 10.7 °C 5 °C 1010.7 hPa NW 6.4 km/h 12.9 km/h 68% 0 mm
21:09 10.5 °C 4.8 °C 1010.7 hPa North 6.4 km/h 12.9 km/h 68% 0 mm
21:14 10.5 °C 5.1 °C 1010.7 hPa NW 6.4 km/h 19.3 km/h 69% 0 mm
21:19 10.4 °C 5 °C 1010.7 hPa NW 6.4 km/h 19.3 km/h 69% 0 mm
21:24 10.4 °C 5.2 °C 1011.1 hPa NW 6.4 km/h 22.5 km/h 70% 0 mm
21:29 10.4 °C 5.2 °C 1011.1 hPa NNW 11.3 km/h 20.9 km/h 70% 0 mm
21:34 10.3 °C 5.1 °C 1011.1 hPa NNW 4.8 km/h 14.5 km/h 70% 0 mm
21:39 10.3 °C 5.1 °C 1011.1 hPa WNW 6.4 km/h 19.3 km/h 70% 0 mm
21:44 10.2 °C 5.2 °C 1011.4 hPa NW 8 km/h 19.3 km/h 71% 0 mm
21:49 10.2 °C 5.2 °C 1011.4 hPa NW 6.4 km/h 12.9 km/h 71% 0 mm
21:54 10.1 °C 5.3 °C 1011.4 hPa NNW 3.2 km/h 14.5 km/h 72% 0 mm
21:59 10.1 °C 5.2 °C 1011.4 hPa NW 6.4 km/h 14.5 km/h 72% 0 mm
22:04 10 °C 5.4 °C 1011.7 hPa NW 6.4 km/h 14.5 km/h 73% 0 mm
22:09 10 °C 5.4 °C 1011.7 hPa NW 6.4 km/h 12.9 km/h 73% 0 mm
22:14 10 °C 5.4 °C 1011.7 hPa NW 6.4 km/h 16.1 km/h 73% 0 mm
22:19 9.9 °C 5.3 °C 1011.7 hPa NNW 4.8 km/h 16.1 km/h 73% 0 mm
22:24 9.9 °C 5.3 °C 1011.7 hPa NW 9.7 km/h 19.3 km/h 73% 0 mm
22:29 9.9 °C 5.4 °C 1011.7 hPa WNW 8 km/h 14.5 km/h 74% 0 mm
22:34 9.9 °C 5.5 °C 1011.7 hPa WNW 4.8 km/h 17.7 km/h 74% 0 mm
22:39 10 °C 5.6 °C 1011.7 hPa West 8 km/h 12.9 km/h 74% 0 mm
22:44 10.1 °C 5.6 °C 1011.7 hPa NW 6.4 km/h 14.5 km/h 74% 0 mm
22:49 10.1 °C 5.7 °C 1012.1 hPa NW 4.8 km/h 14.5 km/h 74% 0 mm
22:54 10.1 °C 5.7 °C 1012.1 hPa WNW 4.8 km/h 11.3 km/h 74% 0 mm
22:59 10.2 °C 5.7 °C 1012.1 hPa WNW 4.8 km/h 14.5 km/h 74% 0 mm
23:04 10.1 °C 5.7 °C 1012.1 hPa WNW 4.8 km/h 14.5 km/h 74% 0 mm
23:09 10.2 °C 5.7 °C 1012.4 hPa NNW 1.6 km/h 11.3 km/h 74% 0 mm
23:14 10.2 °C 5.7 °C 1012.4 hPa NW 6.4 km/h 14.5 km/h 74% 0 mm
23:19 10.2 °C 5.7 °C 1012.4 hPa WNW 6.4 km/h 14.5 km/h 74% 0 mm
23:24 10.2 °C 5.8 °C 1012.4 hPa NW 4.8 km/h 9.7 km/h 74% 0 mm
23:29 10.2 °C 5.7 °C 1012.4 hPa WNW 8 km/h 14.5 km/h 74% 0 mm
23:34 10.2 °C 5.7 °C 1012.4 hPa North 9.7 km/h 16.1 km/h 74% 0 mm
23:39 10.2 °C 5.8 °C 1012.4 hPa NW 6.4 km/h 16.1 km/h 74% 0 mm
23:44 10.2 °C 5.7 °C 1012.4 hPa NW 4.8 km/h 14.5 km/h 74% 0 mm
23:49 10.1 °C 5.6 °C 1012.4 hPa NNW 6.4 km/h 11.3 km/h 74% 0 mm
23:54 9.9 °C 5.5 °C 1012.4 hPa NW 4.8 km/h 14.5 km/h 74% 0 mm
23:59 9.9 °C 5.7 °C 1012.4 hPa NW 4.8 km/h 11.3 km/h 75% 0 mm
Buffalo, New York, USA
Compliments of Weather Underground - 2.5 mb